Weather in Tuyên Quang

Vietnam     21°51′06″N   105°12′45″E
temp.,
°C
wind,
m/s
gust,
m/s
humid.,
%
clouds,
%
prec.,
mm/h
press.,
hPa
HPBL,
m
11 april, sun
sun1101:00+20ne1197100 0.7 101544
04:00+19nne0097100 0.8 101543
07:00+20nne0196100 0.9 101766
10:00+22w0093100 0.1 1018280
13:00+23ne118897 0.3 1015437
16:00+25nne118161 0.1 1013537
19:00+23n0189100 0.2 101315
22:00+22e119392 0.0 101514
12 april, mon
mon1201:00+22e1194100 0.0 101332
04:00+22e119599 0.0 101330
07:00+23ese119399 0.1 1015130
10:00+25ene128199 0.5 1015578
13:00+28ne2274100 1.2 1012700
16:00+29se2465100 0.4 10091126
19:00+25ese1281100 0.6 101138
22:00+24ese118996 0.0 101340
13 april, tue
tue1301:00+23e1291100 0.0 1012122
04:00+22e1293100 0.0 1011125
07:00+23e1290100 0.0 1013262
10:00+25e1282100 0.1 1014539
13:00+26ne127899 0.3 1011520
16:00+28ene246933 0.1 1008874
19:00+25ene2383100 0.3 100973
22:00+24se0186100 0.0 101212
14 april, wed
wed1401:00+23ene1189100 0.0 101046
04:00+23ene1192100 0.1 101045
07:00+23ene019499 1.0 101252
10:00+25ne0187100 1.9 1013367
13:00+26nnw1185100 2.6 1010219
16:00+28e1373100 0.4 1007832
19:00+25ese118730 0.8 100832
22:00+24ese1190100 0.3 101127
15 april, thu
thu1501:00+23e1194100 1.3 101046
04:00+22e1196100 2.3 101043
07:00+23e0195100 3.8 101278
10:00+25ese1288100 0.8 1013316
13:00+28e1373100 1.4 1010983
16:00+29se2467100 0.6 10081074
19:00+24e228878 1.3 100835
22:00+24ene129199 0.1 101158